OE5XCL Weather Reports


time (UTC)temp
F
wind
direction
speed
knots
gust
knots
rain 1hr
in
rain 24hr
in
rain mn
in
humidity
%
barometer
mb
20260507191554 0 304 0.9 5.2 0.00 0.02 0.00 1014.1
20260507190046 0 301 1.7 7.0 0.00 0.02 0.00 1013.9
20260507184539 0 294 2.6 7.0 0.00 0.02 0.00 1013.7
20260507183036 0 306 1.7 7.8 0.00 0.02 0.00 1013.5
20260507181531 0 292 1.7 6.1 0.00 0.02 0.00 1013.3
20260507180025 0 312 2.6 8.7 0.00 0.02 0.00 1013.2
20260507174534 0 311 3.5 10.4 0.00 0.02 0.00 1013.0
20260507173019 0 299 2.6 10.4 0.00 0.02 0.00 1012.8
20260507171516 0 292 6.1 9.6 0.00 0.02 0.00 1012.7
20260507170010 0 295 2.6 10.4 0.00 0.02 0.00 1012.6
20260507164504 0 302 7.0 12.2 0.00 0.02 0.00 1012.6
20260507163100 0 300 5.2 12.2 0.00 0.02 0.00 1012.5
20260507161556 0 313 4.3 11.3 0.00 0.02 0.00 1012.5
20260507160054 0 295 7.8 12.2 0.00 0.02 0.00 1012.5
20260507154548 0 290 6.1 10.4 0.00 0.02 0.00 1012.5
20260507153049 0 264 7.8 13.0 0.00 0.02 0.00 1012.4
20260507151537 0 267 2.6 8.7 0.00 0.02 0.00 1012.4
20260507150039 0 260 7.0 13.0 0.00 0.02 0.00 1012.3
20260507144528 0 322 6.1 9.6 0.00 0.02 0.00 1012.2
20260507143027 0 279 5.2 10.4 0.00 0.02 0.00 1012.3
20260507141523 0 280 7.0 13.0 0.00 0.02 0.00 1012.2
20260507140018 0 312 7.0 12.2 0.00 0.02 0.00 1012.3
20260507134514 0 280 7.8 13.9 0.00 0.02 0.00 1012.3
20260507133010 0 291 5.2 13.0 0.00 0.02 0.00 1012.2
20260507131514 0 286 7.0 13.9 0.00 0.02 0.00 1012.2
20260507130004 0 301 7.8 14.8 0.00 0.02 0.00 1012.3
20260507124602 0 302 6.1 13.9 0.00 0.02 0.00 1012.1
20260507123056 0 306 12.2 20.0 0.00 0.02 0.00 1012.0
20260507121603 0 276 7.8 14.8 0.00 0.02 0.00 1012.0
20260507120046 0 262 10.4 16.5 0.00 0.02 0.00 1012.0
20260507114553 0 273 9.6 14.8 0.00 0.02 0.00 1012.1
20260507113038 0 250 6.1 17.4 0.00 0.02 0.00 1012.1
20260507111534 0 269 7.8 15.6 0.00 0.02 0.00 1012.3
20260507110029 0 280 8.7 17.4 0.00 0.02 0.00 1012.4
20260507104524 0 308 9.6 15.6 0.00 0.02 0.00 1012.4
20260507103020 0 298 9.6 20.0 0.00 0.02 0.00 1012.4
20260507101517 0 277 5.2 15.6 0.00 0.02 0.00 1012.5
20260507100011 0 259 2.6 14.8 0.00 0.02 0.00 1012.5
20260507094506 0 297 7.0 15.6 0.00 0.02 0.00 1012.6
20260507093003 0 262 10.4 18.2 0.00 0.02 0.00 1012.5
20260507091559 0 252 7.8 14.8 0.00 0.02 0.00 1012.5
20260507090056 0 264 7.0 15.6 0.00 0.02 0.00 1012.4
20260507084548 0 261 7.8 13.0 0.00 0.02 0.00 1012.4
20260507083044 0 317 8.7 14.8 0.00 0.02 0.00 1012.2
20260507081547 0 243 6.1 18.2 0.00 0.02 0.00 1012.1
20260507080036 0 279 8.7 15.6 0.00 0.02 0.00 1012.0
20260507074549 0 250 5.2 10.4 0.00 0.02 0.00 1012.0
20260507073027 0 281 7.8 12.2 0.00 0.02 0.00 1012.1
20260507071522 0 265 6.1 10.4 0.00 0.02 0.00 1011.9
20260507070021 0 289 6.1 13.0 0.00 0.02 0.00 1011.8
20260507064513 0 265 4.3 10.4 0.00 0.02 0.00 1011.8
20260507063016 0 260 7.0 12.2 0.00 0.02 0.00 1011.8
20260507061504 0 272 3.5 11.3 0.00 0.02 0.00 1011.9
20260507060105 0 282 4.3 9.6 0.00 0.02 0.00 1011.9
20260507054637 0 261 1.7 7.8 0.00 0.02 0.00 1011.7
20260507053053 0 260 1.7 7.0 0.00 0.02 0.00 1011.7
20260507051547 0 259 1.7 7.8 0.00 0.02 0.00 1011.4
20260507050042 0 276 0.0 5.2 0.00 0.02 0.00 1011.2
20260507044546 0 270 0.9 5.2 0.00 0.02 0.00 1011.0
20260507043033 0 271 0.0 7.8 0.00 0.02 0.00 1010.7
20260507041529 0 274 0.9 6.1 0.00 0.02 0.00 1010.6
20260507040027 0 276 3.5 7.8 0.00 0.02 0.00 1010.5
20260507034520 0 277 2.6 7.0 0.00 0.02 0.00 1010.5
20260507033021 0 279 1.7 7.0 0.00 0.02 0.00 1010.3
20260507031511 0 277 1.7 7.0 0.00 0.02 0.00 1010.2
20260507030007 0 278 0.0 3.5 0.00 0.02 0.00 1010.1
20260507024503 0 277 1.7 7.0 0.00 0.02 0.00 1010.1
20260507023106 0 279 2.6 7.0 0.00 0.02 0.00 1010.0
20260507021554 0 257 0.9 6.1 0.00 0.02 0.00 1010.0
20260507020055 0 260 0.9 7.8 0.00 0.02 0.00 1010.0
20260507014551 0 269 2.6 7.8 0.00 0.02 0.00 1009.9
20260507013044 0 277 1.7 7.0 0.00 0.02 0.00 1009.7
20260507011538 0 265 0.0 2.6 0.00 0.02 0.00 1009.7
20260507010034 0 266 0.9 7.0 0.00 0.02 0.00 1009.7
20260507004527 0 273 1.7 11.3 0.00 0.02 0.00 1009.7
20260507003022 0 267 2.6 9.6 0.00 0.02 0.00 1009.6
20260507001524 0 266 3.5 8.7 0.00 0.02 0.00 1009.5
20260507000016 0 269 3.5 8.7 0.00 0.02 0.00 1009.6
20260506234513 0 260 1.7 7.0 0.00 0.02 0.00 1009.5
20260506233005 0 261 2.6 7.0 0.00 0.02 0.00 1009.4
20260506231501 0 270 4.3 10.4 0.00 0.02 0.00 1009.3
20260506230056 0 271 2.6 7.8 0.00 0.02 0.00 1009.2
20260506224552 0 255 2.6 8.7 0.00 0.02 0.00 1009.0
20260506223047 0 244 2.6 8.7 0.00 0.02 0.00 1009.0
20260506221543 0 280 4.3 9.6 0.00 0.02 0.00 1008.7
20260506220039 0 254 0.9 6.1 0.00 0.02 0.00 1008.7
20260506214536 0 266 2.6 9.6 0.00 0.02 0.02 1008.4
20260506213031 0 244 2.6 9.6 0.00 0.02 0.02 1008.2
20260506211526 0 265 4.3 13.0 0.00 0.02 0.02 1008.1
20260506210021 0 263 6.1 14.8 0.00 0.02 0.02 1007.7
20260506204523 0 298 7.8 17.4 0.00 0.02 0.02 1007.5
20260506203012 0 263 7.8 17.4 0.00 0.02 0.02 1007.1
20260506201509 0 253 6.1 25.2 0.01 0.02 0.02 1007.1
20260506200004 0 255 4.3 13.0 0.02 0.02 0.02 1006.7
20260506194634 0 243 3.5 11.3 0.02 0.02 0.02 1006.4
20260506193104 0 269 1.7 9.6 0.02 0.02 0.02 1006.0